SCP
1 1 1 1 1 1 1 1 1 1 1 1 1 1 1 0 0 1 1 0 0 0 0 0 0 0 0 0 1 1 2 2 1 0 0 1 0 0 -0 0 0 0 0
0 0 0 0 0 0 0 1 1 0 0 1 0 0 0 0 0 0 0 0 0 0 0 0 0 0 0 0 0 1 1 1 1 0 0 1 -0 -0 -0 0 0 0 0
0 -0 0 0 0 1 1 1 -0 0 0 0 0 0 0 0 0 0 0 0 0 0 0 0 0 0 0 0 0 0 0 0 0 1 1 1 0 0 0 0 0 0 0
0 0 0 0 0 0 0 0 0 0 1 0 0 0 0 0 0 0 0 0 0 0 0 0 0 0 0 0 0 0 0 0 0 0 0 0 0 0 0 0 0 0 0
0 0 0 0 0 0 0 0 0 0 0 1 1 0 0 0 0 0 0 0 0 0 0 0 0 0 0 0 0 0 0 0 0 0 0 0 0 0 0 0 0 0 0
0 0 0 0 0 0 0 -0 0 0 0 0 1 0 0 0 0 0 0 0 0 0 0 0 0 0 0 0 0 0 0 0 0 0 0 0 0 0 0 0 0 0 0
0 0 0 0 0 0 0 0 0 0 0 0 0 1 1 1 0 0 0 0 0 0 0 0 0 0 0 0 0 0 0 0 0 0 0 0 0 0 0 0 0 0 0
0 0 0 0 0 0 0 0 0 0 0 0 0 0 1 1 0 0 0 0 0 0 0 0 0 0 0 0 0 0 0 0 0 0 0 0 0 0 0 0 0 0 0
0 0 0 0 0 0 0 0 0 0 0 0 0 0 0 0 0 0 0 0 0 0 0 0 0 0 -0 0 -0 0 0 -0 0 -0 0 0 0 0 0 0 0 0 0
0 0 0 0 0 0 0 0 0 0 0 0 0 0 0 0 0 0 0 0 0 0 0 0 0 0 0 0 -0 0 0 0 0 0 0 0 0 0 0 0 0 0 0
0 0 0 0 0 0 0 0 0 0 0 0 0 0 0 0 0 0 0 0 0 0 0 0 0 0 0 -0 0 0 0 0 0 0 0 0 0 0 0 0 0 0 0
0 0 0 0 0 0 0 0 0 0 0 0 0 0 0 0 0 0 0 0 0 0 0 0 0 0 0 -0 -0 0 0 0 -0 -0 0 0 0 0 0 0 0 0 0
0 0 0 0 0 0 0 0 0 0 0 0 0 0 0 0 0 0 0 0 0 0 0 0 0 0 0 0 -0 0 0 -0 -0 0 0 0 0 0 0 0 0 0 0
0 0 0 0 0 0 0 0 0 0 0 0 0 0 0 0 0 0 0 0 0 0 0 0 0 0 0 0 0 0 0 -0 0 0 0 0 0 0 0 0 0 0 0
-0 0 0 0 0 0 0 0 0 0 0 0 0 0 0 0 0 0 0 0 0 0 0 0 0 0 0 0 0 0 0 0 0 0 0 0 0 0 0 0 0 0 0
0 0 0 0 0 0 0 0 0 0 0 0 0 0 0 0 0 0 0 0 0 0 0 0 0 0 0 0 0 0 0 0 0 0 0 0 0 0 0 0 0 0 0
0 0 0 0 0 0 0 0 0 0 0 0 0 0 0 0 0 0 0 0 0 0 0 0 0 0 0 0 0 0 0 0 0 0 0 0 0 0 0 0 0 0 0
-0 -0 0 0 0 0 0 0 0 0 0 0 0 0 0 0 -0 0 0 0 0 0 0 0 0 0 0 0 -0 0 0 0 0 0 0 0 0 0 0 0 0 0 0
0 0 0 0 -0 -0 0 0 0 0 0 0 0 0 0 0 -0 -0 0 0 0 0 0 0 0 0 0 -0 0 0 0 0 0 0 0 0 0 0 0 0 0 0 0
-0 0 0 0 0 -0 0 0 0 -0 -0 -0 0 0 0 0 -0 -0 -0 -0 0 0 0 -0 -0 0 -0 0 0 0 0 0 0 0 0 0 0 0 0 0 0 0 0
-0 -0 0 0 0 0 0 0 0 0 0 0 0 0 0 0 0 0 0 0 -0 -0 -0 -0 0 0 0 0 0 0 0 0 0 0 0 0 0 0 0 0 0 0 0
0 0 0 0 0 0 0 0 0 0 0 0 0 0 0 0 0 0 0 0 0 -0 -0 -0 0 0 0 0 0 0 0 0 -0 0 0 0 0 0 0 0 0 0 0
0 0 0 0 0 0 0 0 0 0 0 0 0 0 0 0 0 0 0 0 0 0 0 0 0 0 0 0 0 0 0 0 0 0 0 0 0 0 0 0 0 0 0
0 0 0 0 0 0 0 0 0 0 0 0 0 0 0 0 0 0 0 0 0 0 0 0 0 0 0 0 0 0 0 0 0 0 0 0 0 0 0 0 0 0 0
0 0 0 0 0 0 0 0 0 0 0 0 0 0 0 0 0 0 0 0 0 0 0 0 0 0 0 0 0 0 0 0 0 0 0 0 0 0 0 0 0 0 0
0 0 0 0 0 0 0 0 0 0 0 0 0 0 0 0 0 0 0 0 0 0 0 0 0 0 0 0 0 0 0 0 0 0 0 0 0 0 0 0 0 0 0
Wind_Speed_500mb
45 50 52 47 44 45 42 28 23 21 23 26 25 32 36 36 37 38 36 32 28 28 31 36 40 45 44 44 46 44 48 45 52 60 57 54 70 61 53 40 38 41 41
23 36 48 50 49 52 53 41 40 31 26 26 28 28 30 30 23 22 22 14 9 8 12 14 18 24 33 35 29 32 38 39 44 53 59 60 83 63 57 48 36 34 36
23 20 35 46 49 49 48 47 58 47 39 38 35 34 35 35 31 26 23 19 15 13 13 15 15 16 19 22 26 30 35 46 47 48 51 50 76 64 59 45 40 36 36
52 43 41 37 39 53 64 68 72 65 58 50 47 45 45 45 44 39 35 31 26 24 22 22 20 22 25 28 31 34 36 45 42 41 43 51 58 65 61 50 44 39 40
35 53 51 65 50 40 49 64 80 78 77 64 63 61 60 60 58 55 52 47 40 35 34 32 31 30 32 35 37 39 43 38 39 40 48 46 55 63 62 50 50 42 43
29 26 31 41 60 62 43 41 47 64 74 79 80 75 71 73 71 67 61 57 52 46 44 41 39 40 44 47 49 49 49 49 52 45 49 51 63 67 62 49 45 45 43
51 49 48 44 45 43 46 50 54 48 49 67 76 82 85 82 78 74 68 65 62 57 51 47 45 41 50 55 57 57 57 54 53 54 65 66 61 66 62 53 43 35 34
51 53 56 56 55 53 52 53 52 52 55 57 60 66 76 84 81 76 75 71 69 64 59 52 49 51 54 57 59 61 61 58 50 50 58 64 70 60 49 41 36 33 39
53 52 52 55 60 60 64 65 64 61 60 62 64 66 67 65 67 64 62 68 71 72 67 59 55 55 57 57 57 62 67 63 50 53 50 53 49 39 32 34 37 38 27
62 59 54 54 58 61 68 72 73 75 73 70 70 74 72 75 74 66 62 68 72 73 73 70 64 62 61 61 60 60 66 55 45 41 40 35 41 35 34 31 32 35 27
63 62 64 67 65 62 63 65 68 74 73 81 82 84 82 80 81 81 76 78 66 60 68 52 63 72 68 65 64 62 65 54 52 50 43 39 48 44 32 36 42 31 29
80 86 72 62 59 59 61 63 62 65 71 77 79 84 82 93 87 87 86 84 86 79 64 53 59 78 75 73 68 66 59 55 59 56 43 45 51 42 33 35 36 36 29
65 67 63 68 77 81 65 60 59 62 67 71 71 77 83 79 80 92 88 89 92 88 84 74 77 80 84 79 84 69 61 63 62 54 49 44 51 38 31 40 37 36 35
75 67 70 69 64 61 66 64 65 71 76 75 76 79 78 75 78 78 84 100 101 97 92 87 90 88 95 90 84 73 71 69 60 54 50 49 46 39 36 40 38 38 34
73 75 72 74 75 75 74 76 77 80 76 74 78 78 75 79 82 77 76 71 69 81 84 86 76 84 83 69 72 72 65 62 59 49 58 51 51 43 43 40 39 38 27
72 73 71 72 72 73 76 81 82 84 83 83 85 83 73 76 64 67 74 76 72 64 57 55 64 67 59 57 66 56 57 59 55 59 60 51 50 48 46 41 39 32 24
70 73 71 75 77 78 78 84 85 85 85 82 81 83 85 86 70 74 67 61 54 48 51 54 64 63 60 58 60 55 58 58 58 69 58 57 47 40 48 39 32 27 24
65 69 71 76 80 82 81 83 82 82 75 73 75 75 75 80 86 68 63 56 60 60 52 52 51 48 58 47 50 50 54 50 66 75 55 50 46 43 41 41 35 30 25
62 65 65 68 71 73 75 74 75 76 78 81 74 71 69 75 78 87 80 68 70 56 64 62 53 49 50 45 42 43 52 57 68 61 53 53 43 45 39 40 33 28 24
62 63 67 67 64 57 51 48 48 46 47 56 67 79 73 63 79 76 85 84 74 65 58 54 58 49 44 50 41 48 54 64 59 55 57 55 48 45 38 35 31 28 23
63 56 43 36 31 29 26 17 12 19 12 11 17 41 56 68 79 74 74 83 73 71 67 53 45 44 46 48 53 54 75 64 58 60 54 50 48 41 37 33 29 24 25
35 28 24 18 17 11 10 7 7 13 13 18 21 32 50 62 59 60 69 80 71 63 49 51 54 53 47 57 62 56 58 68 64 59 56 56 49 40 39 33 26 26 25
18 20 20 15 9 4 18 21 20 24 29 33 44 51 41 42 45 49 54 57 65 66 53 48 46 46 47 60 56 56 62 58 63 57 51 51 48 45 38 29 26 24 23
23 19 11 17 23 22 32 37 34 36 44 45 42 42 41 44 46 50 48 48 50 53 62 67 62 59 56 50 46 51 55 56 64 60 56 53 50 43 31 26 23 23 26
18 17 26 38 45 44 40 47 56 47 42 47 43 41 40 40 47 54 63 67 68 65 58 49 43 45 47 50 56 61 61 66 64 55 51 49 48 39 28 26 26 24 22
22 28 33 37 37 48 45 46 55 51 53 49 52 64 63 71 58 64 52 59 69 70 68 64 63 60 60 60 59 58 55 52 51 52 50 46 40 35 29 29 29 28 23
Wind_Direction_500mb
219 208 208 207 209 200 209 207 213 218 226 219 224 225 224 231 237 240 242 245 247 249 253 255 258 263 266 270 270 269 268 272 272 279 283 286 295 298 301 301 252 266 268
244 227 224 226 215 212 213 212 224 220 217 212 215 219 218 214 208 208 202 203 213 245 258 268 270 265 263 266 271 269 267 266 271 277 276 276 293 296 295 298 251 255 265
340 298 258 253 250 229 232 229 234 231 226 218 218 222 221 217 217 214 218 230 242 263 279 279 280 284 289 287 286 281 277 272 270 271 274 272 280 286 294 292 238 252 268
304 295 296 303 270 252 250 249 247 240 234 232 230 227 233 234 234 234 240 247 254 264 281 286 292 294 300 306 301 300 296 284 276 275 276 278 273 278 282 284 234 249 258
254 279 288 278 281 278 261 254 245 245 242 238 237 236 238 238 239 239 242 247 256 265 271 281 288 292 294 298 296 292 292 290 284 280 276 275 274 276 277 280 237 243 244
294 278 261 255 249 259 265 268 259 249 245 240 241 240 238 241 243 242 243 245 252 258 263 270 281 288 293 300 300 296 287 283 280 273 273 268 270 276 282 265 231 235 235
290 285 281 277 271 266 256 252 257 255 253 243 243 243 243 244 245 245 247 246 247 253 258 264 275 282 296 300 303 300 291 278 269 272 268 266 271 273 274 259 228 253 243
288 286 283 278 275 272 268 261 259 258 256 254 247 247 247 247 246 246 249 248 243 251 256 261 273 284 293 300 302 296 290 280 275 270 269 270 272 267 261 234 256 249 229
287 285 281 279 277 273 268 266 263 263 259 259 257 250 246 243 243 241 238 236 242 249 255 260 270 283 293 300 301 293 288 284 276 269 270 273 263 243 237 243 242 227 211
282 280 278 278 274 272 270 268 265 262 260 258 257 254 250 247 245 236 237 240 242 244 251 258 266 278 290 300 300 291 284 283 279 279 277 258 244 232 240 253 228 215 205
280 279 276 279 273 270 269 265 262 259 256 255 254 254 254 250 245 236 236 240 235 239 246 251 265 278 285 294 300 286 278 277 277 274 269 265 238 236 238 236 216 216 214
284 285 278 269 264 266 268 264 257 254 252 253 252 252 249 249 249 246 243 239 236 237 241 250 261 275 284 290 292 283 271 265 270 267 257 265 224 230 221 235 217 220 218
275 279 268 268 271 273 264 260 259 252 246 244 243 245 244 241 242 244 243 239 236 242 248 254 263 276 279 280 286 276 265 258 262 260 258 246 212 220 232 221 213 218 216
279 278 275 273 270 264 261 258 256 250 246 245 244 242 242 240 237 236 241 242 243 245 249 256 263 268 274 273 272 264 256 253 253 253 236 227 212 216 214 212 214 212 209
275 279 277 273 270 267 263 259 253 252 247 246 243 242 240 238 236 236 232 230 237 246 249 255 254 258 256 254 256 254 251 247 241 229 223 208 209 218 214 206 213 208 201
277 275 272 270 269 267 267 268 267 264 260 255 250 242 240 239 237 237 233 232 241 242 239 225 231 235 239 242 245 246 243 238 229 218 208 212 212 210 199 195 197 197 196
279 279 278 276 274 271 267 266 262 266 265 261 255 249 243 239 237 231 231 234 234 223 216 226 226 232 233 234 240 241 241 226 211 208 209 204 202 192 189 179 180 187 191
283 280 277 276 274 273 270 266 261 260 258 254 257 249 242 236 232 224 223 222 225 224 225 217 223 226 229 233 242 236 224 221 211 208 212 202 184 183 181 180 184 191 193
288 286 286 286 284 278 274 269 264 260 258 258 256 250 238 232 226 221 218 219 213 218 221 226 223 227 233 228 235 227 212 216 211 205 202 186 180 180 178 183 190 190 194
295 296 294 293 290 287 281 273 267 267 268 261 246 240 236 216 215 215 216 218 219 213 219 224 227 230 231 227 232 208 213 214 198 199 186 183 179 173 170 173 178 178 185
303 309 313 307 306 309 303 266 252 245 239 246 225 204 206 196 194 199 205 203 210 215 217 223 219 224 224 230 213 219 207 196 197 187 177 172 174 168 168 172 171 169 183
318 331 349 1 33 39 66 187 156 134 109 104 135 159 168 174 179 185 193 206 218 217 217 214 218 223 215 206 199 191 199 197 188 177 173 176 174 168 167 166 171 177 186
15 38 64 70 124 110 125 128 140 137 122 119 129 135 135 156 169 181 190 199 202 199 204 206 215 208 210 202 204 201 191 182 176 169 166 166 165 164 161 161 165 171 178
68 65 89 88 90 100 104 106 110 126 135 136 140 151 156 164 172 177 186 195 196 190 187 185 184 179 182 188 188 190 187 172 170 171 168 162 163 165 158 159 167 176 185
88 88 93 103 106 99 102 102 105 99 115 122 134 138 147 153 159 170 176 174 170 168 168 164 163 166 167 164 161 165 167 165 165 165 162 163 163 161 155 163 175 175 179
96 102 101 92 94 110 109 105 108 109 121 125 128 129 134 139 133 128 134 143 136 134 133 133 132 136 137 138 141 144 150 155 157 158 161 163 165 165 167 168 165 159 161
Wind_Speed_850mb
45 50 52 47 44 45 42 28 23 21 23 26 25 32 36 36 37 38 36 32 28 28 31 36 40 45 44 44 46 44 48 45 52 60 57 54 70 61 53 40 38 41 41
23 36 48 50 49 52 53 41 40 31 26 26 28 28 30 30 23 22 22 14 9 8 12 14 18 24 33 35 29 32 38 39 44 53 59 60 83 63 57 48 36 34 36
23 20 35 46 49 49 48 47 58 47 39 38 35 34 35 35 31 26 23 19 15 13 13 15 15 16 19 22 26 30 35 46 47 48 51 50 76 64 59 45 40 36 36
52 43 41 37 39 53 64 68 72 65 58 50 47 45 45 45 44 39 35 31 26 24 22 22 20 22 25 28 31 34 36 45 42 41 43 51 58 65 61 50 44 39 40
35 53 51 65 50 40 49 64 80 78 77 64 63 61 60 60 58 55 52 47 40 35 34 32 31 30 32 35 37 39 43 38 39 40 48 46 55 63 62 50 50 42 43
29 26 31 41 60 62 43 41 47 64 74 79 80 75 71 73 71 67 61 57 52 46 44 41 39 40 44 47 49 49 49 49 52 45 49 51 63 67 62 49 45 45 43
51 49 48 44 45 43 46 50 54 48 49 67 76 82 85 82 78 74 68 65 62 57 51 47 45 41 50 55 57 57 57 54 53 54 65 66 61 66 62 53 43 35 34
51 53 56 56 55 53 52 53 52 52 55 57 60 66 76 84 81 76 75 71 69 64 59 52 49 51 54 57 59 61 61 58 50 50 58 64 70 60 49 41 36 33 39
53 52 52 55 60 60 64 65 64 61 60 62 64 66 67 65 67 64 62 68 71 72 67 59 55 55 57 57 57 62 67 63 50 53 50 53 49 39 32 34 37 38 27
62 59 54 54 58 61 68 72 73 75 73 70 70 74 72 75 74 66 62 68 72 73 73 70 64 62 61 61 60 60 66 55 45 41 40 35 41 35 34 31 32 35 27
63 62 64 67 65 62 63 65 68 74 73 81 82 84 82 80 81 81 76 78 66 60 68 52 63 72 68 65 64 62 65 54 52 50 43 39 48 44 32 36 42 31 29
80 86 72 62 59 59 61 63 62 65 71 77 79 84 82 93 87 87 86 84 86 79 64 53 59 78 75 73 68 66 59 55 59 56 43 45 51 42 33 35 36 36 29
65 67 63 68 77 81 65 60 59 62 67 71 71 77 83 79 80 92 88 89 92 88 84 74 77 80 84 79 84 69 61 63 62 54 49 44 51 38 31 40 37 36 35
75 67 70 69 64 61 66 64 65 71 76 75 76 79 78 75 78 78 84 100 101 97 92 87 90 88 95 90 84 73 71 69 60 54 50 49 46 39 36 40 38 38 34
73 75 72 74 75 75 74 76 77 80 76 74 78 78 75 79 82 77 76 71 69 81 84 86 76 84 83 69 72 72 65 62 59 49 58 51 51 43 43 40 39 38 27
72 73 71 72 72 73 76 81 82 84 83 83 85 83 73 76 64 67 74 76 72 64 57 55 64 67 59 57 66 56 57 59 55 59 60 51 50 48 46 41 39 32 24
70 73 71 75 77 78 78 84 85 85 85 82 81 83 85 86 70 74 67 61 54 48 51 54 64 63 60 58 60 55 58 58 58 69 58 57 47 40 48 39 32 27 24
65 69 71 76 80 82 81 83 82 82 75 73 75 75 75 80 86 68 63 56 60 60 52 52 51 48 58 47 50 50 54 50 66 75 55 50 46 43 41 41 35 30 25
62 65 65 68 71 73 75 74 75 76 78 81 74 71 69 75 78 87 80 68 70 56 64 62 53 49 50 45 42 43 52 57 68 61 53 53 43 45 39 40 33 28 24
62 63 67 67 64 57 51 48 48 46 47 56 67 79 73 63 79 76 85 84 74 65 58 54 58 49 44 50 41 48 54 64 59 55 57 55 48 45 38 35 31 28 23
63 56 43 36 31 29 26 17 12 19 12 11 17 41 56 68 79 74 74 83 73 71 67 53 45 44 46 48 53 54 75 64 58 60 54 50 48 41 37 33 29 24 25
35 28 24 18 17 11 10 7 7 13 13 18 21 32 50 62 59 60 69 80 71 63 49 51 54 53 47 57 62 56 58 68 64 59 56 56 49 40 39 33 26 26 25
18 20 20 15 9 4 18 21 20 24 29 33 44 51 41 42 45 49 54 57 65 66 53 48 46 46 47 60 56 56 62 58 63 57 51 51 48 45 38 29 26 24 23
23 19 11 17 23 22 32 37 34 36 44 45 42 42 41 44 46 50 48 48 50 53 62 67 62 59 56 50 46 51 55 56 64 60 56 53 50 43 31 26 23 23 26
18 17 26 38 45 44 40 47 56 47 42 47 43 41 40 40 47 54 63 67 68 65 58 49 43 45 47 50 56 61 61 66 64 55 51 49 48 39 28 26 26 24 22
22 28 33 37 37 48 45 46 55 51 53 49 52 64 63 71 58 64 52 59 69 70 68 64 63 60 60 60 59 58 55 52 51 52 50 46 40 35 29 29 29 28 23
Wind_Direction_850mb
219 208 208 207 209 200 209 207 213 218 226 219 224 225 224 231 237 240 242 245 247 249 253 255 258 263 266 270 270 269 268 272 272 279 283 286 295 298 301 301 252 266 268
244 227 224 226 215 212 213 212 224 220 217 212 215 219 218 214 208 208 202 203 213 245 258 268 270 265 263 266 271 269 267 266 271 277 276 276 293 296 295 298 251 255 265
340 298 258 253 250 229 232 229 234 231 226 218 218 222 221 217 217 214 218 230 242 263 279 279 280 284 289 287 286 281 277 272 270 271 274 272 280 286 294 292 238 252 268
304 295 296 303 270 252 250 249 247 240 234 232 230 227 233 234 234 234 240 247 254 264 281 286 292 294 300 306 301 300 296 284 276 275 276 278 273 278 282 284 234 249 258
254 279 288 278 281 278 261 254 245 245 242 238 237 236 238 238 239 239 242 247 256 265 271 281 288 292 294 298 296 292 292 290 284 280 276 275 274 276 277 280 237 243 244
294 278 261 255 249 259 265 268 259 249 245 240 241 240 238 241 243 242 243 245 252 258 263 270 281 288 293 300 300 296 287 283 280 273 273 268 270 276 282 265 231 235 235
290 285 281 277 271 266 256 252 257 255 253 243 243 243 243 244 245 245 247 246 247 253 258 264 275 282 296 300 303 300 291 278 269 272 268 266 271 273 274 259 228 253 243
288 286 283 278 275 272 268 261 259 258 256 254 247 247 247 247 246 246 249 248 243 251 256 261 273 284 293 300 302 296 290 280 275 270 269 270 272 267 261 234 256 249 229
287 285 281 279 277 273 268 266 263 263 259 259 257 250 246 243 243 241 238 236 242 249 255 260 270 283 293 300 301 293 288 284 276 269 270 273 263 243 237 243 242 227 211
282 280 278 278 274 272 270 268 265 262 260 258 257 254 250 247 245 236 237 240 242 244 251 258 266 278 290 300 300 291 284 283 279 279 277 258 244 232 240 253 228 215 205
280 279 276 279 273 270 269 265 262 259 256 255 254 254 254 250 245 236 236 240 235 239 246 251 265 278 285 294 300 286 278 277 277 274 269 265 238 236 238 236 216 216 214
284 285 278 269 264 266 268 264 257 254 252 253 252 252 249 249 249 246 243 239 236 237 241 250 261 275 284 290 292 283 271 265 270 267 257 265 224 230 221 235 217 220 218
275 279 268 268 271 273 264 260 259 252 246 244 243 245 244 241 242 244 243 239 236 242 248 254 263 276 279 280 286 276 265 258 262 260 258 246 212 220 232 221 213 218 216
279 278 275 273 270 264 261 258 256 250 246 245 244 242 242 240 237 236 241 242 243 245 249 256 263 268 274 273 272 264 256 253 253 253 236 227 212 216 214 212 214 212 209
275 279 277 273 270 267 263 259 253 252 247 246 243 242 240 238 236 236 232 230 237 246 249 255 254 258 256 254 256 254 251 247 241 229 223 208 209 218 214 206 213 208 201
277 275 272 270 269 267 267 268 267 264 260 255 250 242 240 239 237 237 233 232 241 242 239 225 231 235 239 242 245 246 243 238 229 218 208 212 212 210 199 195 197 197 196
279 279 278 276 274 271 267 266 262 266 265 261 255 249 243 239 237 231 231 234 234 223 216 226 226 232 233 234 240 241 241 226 211 208 209 204 202 192 189 179 180 187 191
283 280 277 276 274 273 270 266 261 260 258 254 257 249 242 236 232 224 223 222 225 224 225 217 223 226 229 233 242 236 224 221 211 208 212 202 184 183 181 180 184 191 193
288 286 286 286 284 278 274 269 264 260 258 258 256 250 238 232 226 221 218 219 213 218 221 226 223 227 233 228 235 227 212 216 211 205 202 186 180 180 178 183 190 190 194
295 296 294 293 290 287 281 273 267 267 268 261 246 240 236 216 215 215 216 218 219 213 219 224 227 230 231 227 232 208 213 214 198 199 186 183 179 173 170 173 178 178 185
303 309 313 307 306 309 303 266 252 245 239 246 225 204 206 196 194 199 205 203 210 215 217 223 219 224 224 230 213 219 207 196 197 187 177 172 174 168 168 172 171 169 183
318 331 349 1 33 39 66 187 156 134 109 104 135 159 168 174 179 185 193 206 218 217 217 214 218 223 215 206 199 191 199 197 188 177 173 176 174 168 167 166 171 177 186
15 38 64 70 124 110 125 128 140 137 122 119 129 135 135 156 169 181 190 199 202 199 204 206 215 208 210 202 204 201 191 182 176 169 166 166 165 164 161 161 165 171 178
68 65 89 88 90 100 104 106 110 126 135 136 140 151 156 164 172 177 186 195 196 190 187 185 184 179 182 188 188 190 187 172 170 171 168 162 163 165 158 159 167 176 185
88 88 93 103 106 99 102 102 105 99 115 122 134 138 147 153 159 170 176 174 170 168 168 164 163 166 167 164 161 165 167 165 165 165 162 163 163 161 155 163 175 175 179
96 102 101 92 94 110 109 105 108 109 121 125 128 129 134 139 133 128 134 143 136 134 133 133 132 136 137 138 141 144 150 155 157 158 161 163 165 165 167 168 165 159 161